[[{"header":{"parameterUnit":"m.s-1","parameterCategory":2,"la1":30.2991,"la2":30.254,"lo1":-89.0895,"lo2":-89.0444,"dy":0.0017,"dx":0.0017,"nx":28,"ny":28,"refTime":"2023-06-19T21:00:00:Z","depth":"0","parameterNumber":2,"parameterNumberName":"U-component_of_CURRENTS"},"data":[0,0,0,0,0,0,0,0,0,0,0,0,0,0,0,0,0,0,0,0,0,0,0,0,0,0,0,0,0,0,0,0,0,0,0,0,0,0,0,0,0,0,0,0,0,0,0,0,0,0,0,0,0,0,0,0,0,0,0.2537,0.2539,0,0.2648,0.2648,0.2649,0.262,0.2619,0.2618,0.2616,0.26,0.2601,0.2602,0,0,0,0,0,0,0,0,0,0,0,0,0,0.2227,0.2232,0.2537,0.2539,0.2542,0.2648,0.2648,0.2649,0.2621,0.2619,0.2617,0.2616,0.26,0.2601,0.2602,0,0,0,0,0,0,0,0,0,0,0,0,0,0.2344,0.2234,0.2537,0.2547,0.2549,0.2648,0.2648,0.2649,0.2621,0.2619,0.2617,0.2615,0.2599,0.26,0.2602,0.2651,0,0,0.2606,0.2606,0,0,0,0,0,0,0,0,0.2337,0.2354,0.2543,0.2546,0.2549,0.2626,0.2533,0.2647,0.2622,0.2585,0.2616,0.2614,0.2604,0.2605,0.262,0.2651,0.265,0.2606,0.2607,0.2607,0.2607,0,0,0,0,0,0,0,0.2329,0.2349,0.2572,0.2546,0.255,0.252,0.2534,0.2554,0.2595,0.2588,0.2588,0.2615,0.2603,0.2619,0.2619,0.265,0.2606,0.2607,0.2608,0.2608,0.2707,0.2709,0,0,0,0,0,0,0.2341,0.2343,0.2569,0.2576,0.2446,0.2529,0.2544,0.2596,0.2598,0.26,0.2617,0.2613,0.2617,0.2617,0.2618,0.2654,0.2607,0.2608,0.2609,0.2705,0.2707,0.2709,0,0,0,0,0,0,0.2334,0.2361,0.2565,0.2466,0.2491,0.2538,0.2596,0.26,0.261,0.2623,0.262,0.2623,0.2616,0.2616,0.2626,0.2654,0.2609,0.261,0.2703,0.2706,0.2708,0.2741,0,0,0,0,0,0,0.2325,0.2358,0.239,0.2469,0.2498,0.2616,0.2599,0.2604,0.2635,0.2631,0.2628,0.2625,0.2614,0.2624,0.2627,0.2655,0.2611,0.2701,0.2704,0.2707,0.2738,0.2745,0.2751,0,0,0,0,0,0.2314,0.24,0.2392,0.2419,0.2545,0.2618,0.2628,0.2646,0.2637,0.2645,0.264,0.2624,0.2649,0.2626,0.2629,0.2658,0.2699,0.2703,0.2707,0.2735,0.2743,0.2751,0,0,0,0,0,0,0.228,0.2408,0.24,0.2517,0.2548,0.2616,0.2654,0.2653,0.2661,0.2653,0.2642,0.264,0.2665,0.2662,0.2638,0.27,0.2675,0.268,0.2695,0.2703,0.2709,0.2691,0.2612,0,0,0,0,0,0.2289,0.238,0.2455,0.2532,0.2565,0.2599,0.263,0.2634,0.2663,0.2664,0.2664,0.2671,0.2691,0.2692,0.2709,0.2738,0.275,0.2763,0.277,0.2775,0.2765,0.283,0.2841,0.2723,0.2723,0.2723,0,0,0.2294,0.2376,0.2423,0.2528,0.2565,0.261,0.2611,0.2667,0.2681,0.2663,0.2684,0.2695,0.2706,0.2737,0.2749,0.2732,0.2816,0.278,0.2784,0.2771,0.2835,0.2847,0.2857,0.2726,0.2725,0.2725,0,0,0.2352,0.2424,0.2507,0.2537,0.2602,0.2628,0.2642,0.2699,0.2702,0.2725,0.2723,0.2745,0.2769,0.2784,0.2795,0.2851,0.2853,0.2865,0.2875,0.2939,0.2949,0.2958,0.2987,0.2998,0.2862,0.2863,0.2863,0,0.2331,0.2454,0.2529,0.2589,0.2615,0.2636,0.2676,0.2699,0.2734,0.2739,0.2729,0.2784,0.2793,0.2836,0.2852,0.2865,0.2889,0.284,0.2946,0.2955,0.2963,0.2992,0.3003,0.2865,0.2864,0.2864,0.2864,0,0.2448,0.2504,0.2558,0.2637,0.2669,0.2714,0.2748,0.2764,0.277,0.2777,0.2814,0.2836,0.286,0.2883,0.2879,0.2948,0.2942,0.2951,0.2921,0.2977,0.3003,0.3015,0.2868,0.2867,0.2866,0.2866,0,0,0.247,0.2612,0.2611,0.2627,0.269,0.2726,0.276,0.2796,0.2811,0.2831,0.2861,0.29,0.2903,0.2917,0.2933,0.2981,0.3064,0.2986,0.2988,0.3004,0.3187,0.3004,0.2999,0.3096,0.3098,0.31,0.3181,0,0.2505,0.2625,0.268,0.272,0.2771,0.278,0.2806,0.2824,0.2842,0.2875,0.2898,0.2933,0.2921,0.2942,0.2989,0.3047,0.3096,0.3039,0.3139,0.3141,0.2963,0.3007,0.2822,0.2862,0.3192,0.3194,0.3195,0,0.2583,0.2645,0.2718,0.2758,0.2779,0.2794,0.2825,0.2849,0.2888,0.29,0.293,0.2954,0.3011,0.301,0.3114,0.3079,0.3133,0.3174,0.3179,0.2998,0.2979,0.2862,0.2871,0.2795,0.3213,0.3211,0.321,0,0.2572,0.2656,0.2712,0.2725,0.2786,0.2794,0.2817,0.285,0.2862,0.2921,0.2933,0.3002,0.303,0.3118,0.3164,0.3163,0.3278,0.3296,0.3182,0.3169,0.3021,0.2989,0.2952,0.3391,0.3391,0.3391,0.339,0,0.2598,0.2625,0.2706,0.2722,0.2747,0.2788,0.2805,0.2836,0.2873,0.2884,0.294,0.2959,0.3062,0.3121,0.3189,0.3184,0.3299,0.3175,0.3178,0.3024,0.2993,0.2925,0.2931,0.3394,0.3393,0.3392,0.3392,0,0.2571,0.2639,0.2684,0.2738,0.2747,0.2759,0.2784,0.2798,0.2835,0.2858,0.2877,0.2939,0.2996,0.3074,0.3207,0.3173,0.3122,0.3213,0.2992,0.2962,0.2722,0.2737,0.26,0.2546,0.3091,0.3087,0.3083,0,0.2583,0.2609,0.2669,0.2683,0.2699,0.272,0.2728,0.277,0.2781,0.283,0.2839,0.2894,0.2907,0.2978,0.2963,0.301,0.2996,0.2836,0.2784,0.266,0.2685,0.2614,0.2577,0.2627,0.262,0.2615,0.261,0,0.2556,0.2577,0.2606,0.2644,0.2657,0.2664,0.2683,0.2681,0.2724,0.2732,0.2735,0.2753,0.2763,0.2676,0.2682,0.2699,0.2647,0.2714,0.2678,0.2368,0.2204,0.2167,0.2615,0.256,0.2565,0.2569,0.2571,0.2573,0.2509,0.2525,0.2569,0.2577,0.2608,0.2599,0.2542,0.2564,0.2551,0.2484,0.259,0.2502,0.2421,0.2376,0.2383,0.2194,0.2303,0.2109,0.216,0.2115,0.1969,0.2255,0.2131,0.2133,0.2135,0.2137,0.2139,0,0.2415,0.2462,0.2497,0.2511,0.2499,0.2529,0.2492,0.2388,0.2307,0.2292,0.2243,0.2078,0.1962,0.1915,0.1756,0.1666,0.1643,0.1626,0.1542,0.1557,0.1892,0.1774,0.1451,0.1451,0.1451,0.1451,0.1451,0.1451,0.2378,0.2381,0.24,0.2373,0.2379,0.2261,0.2191,0.2063,0.1992,0.1792,0.1652,0.1628,0.1612,0.1472,0.1342,0.1317,0.1287,0.1146,0.1263,0.1547,0.1598,0.1647,0.1535,0.1168,0.1167,0.0813,0.081,0.0809]},{"header":{"parameterUnit":"m.s-1","parameterCategory":2,"la1":30.2991,"la2":30.254,"lo1":-89.0895,"lo2":-89.0444,"dy":0.0017,"dx":0.0017,"nx":28,"ny":28,"refTime":"2023-06-19T21:00:00:Z","depth":"0","parameterNumber":3,"parameterNumberName":"V-component_of_CURRENTS"},"data":[0,0,0,0,0,0,0,0,0,0,0,0,0,0,0,0,0,0,0,0,0,0,0,0,0,0,0,0,0,0,0,0,0,0,0,0,0,0,0,0,0,0,0,0,0,0,0,0,0,0,0,0,0,0,0,0,0,0,-0.0216,-0.0217,0,-0.0318,-0.0319,-0.0319,-0.035,-0.035,-0.035,-0.035,-0.0316,-0.0314,-0.0313,0,0,0,0,0,0,0,0,0,0,0,0,0,-0.0029,-0.0032,-0.0215,-0.0217,-0.0219,-0.0318,-0.0319,-0.0319,-0.035,-0.035,-0.035,-0.0351,-0.0316,-0.0315,-0.0313,0,0,0,0,0,0,0,0,0,0,0,0,0,-0.0111,-0.0033,-0.0215,-0.0252,-0.0257,-0.0318,-0.0319,-0.032,-0.035,-0.035,-0.035,-0.0351,-0.0316,-0.0315,-0.0313,-0.0296,0,0,-0.0308,-0.0307,0,0,0,0,0,0,0,0,-0.0106,-0.0117,-0.0245,-0.025,-0.0256,-0.0329,-0.0241,-0.0308,-0.035,-0.0306,-0.035,-0.0351,-0.0312,-0.0311,-0.032,-0.0295,-0.0293,-0.0308,-0.0307,-0.0306,-0.0305,0,0,0,0,0,0,0,-0.0101,-0.0113,-0.0248,-0.0247,-0.0254,-0.0259,-0.027,-0.0254,-0.0297,-0.031,-0.0314,-0.0339,-0.0313,-0.0322,-0.0319,-0.0293,-0.0308,-0.0306,-0.0305,-0.0305,-0.0161,-0.0158,0,0,0,0,0,0,-0.0106,-0.0108,-0.0245,-0.0252,-0.019,-0.0263,-0.0275,-0.0298,-0.0301,-0.0305,-0.0338,-0.034,-0.0324,-0.0321,-0.0318,-0.0235,-0.0306,-0.0304,-0.0303,-0.0164,-0.016,-0.0157,0,0,0,0,0,0,-0.0101,-0.0117,-0.0241,-0.0188,-0.0206,-0.0267,-0.0292,-0.03,-0.0309,-0.0325,-0.0325,-0.034,-0.0324,-0.032,-0.0281,-0.0236,-0.0304,-0.0302,-0.0167,-0.0163,-0.0159,-0.0108,0,0,0,0,0,0,-0.0095,-0.0114,-0.0125,-0.0189,-0.0209,-0.0269,-0.0293,-0.0302,-0.0328,-0.033,-0.0326,-0.0324,-0.0324,-0.0283,-0.0279,-0.0235,-0.0301,-0.0171,-0.0165,-0.016,-0.0113,-0.0103,-0.0094,0,0,0,0,0,-0.0088,-0.0111,-0.0125,-0.0142,-0.0225,-0.027,-0.0279,-0.0318,-0.0327,-0.0326,-0.031,-0.0324,-0.0246,-0.028,-0.0276,-0.023,-0.0173,-0.0167,-0.016,-0.0118,-0.0105,-0.0094,0,0,0,0,0,0,-0.0042,-0.0119,-0.0135,-0.0181,-0.0217,-0.0278,-0.0297,-0.0313,-0.0304,-0.0303,-0.03,-0.0295,-0.0241,-0.0237,-0.0274,-0.0168,-0.0206,-0.0199,-0.0175,-0.0163,-0.0153,-0.0148,-0.0299,0,0,0,0,0,-0.0036,-0.007,-0.0133,-0.0168,-0.0189,-0.0236,-0.0258,-0.0282,-0.0294,-0.0293,-0.0279,-0.0251,-0.0212,-0.0191,-0.0165,-0.0115,-0.0119,-0.0075,-0.0065,-0.0057,-0.0046,-0.0018,-0.0005,-0.0137,-0.0137,-0.0137,0,0,-0.0033,-0.0078,-0.01,-0.0159,-0.0195,-0.0199,-0.0248,-0.0286,-0.0263,-0.0286,-0.0236,-0.0223,-0.0191,-0.0132,-0.0105,-0.0123,-0.0019,-0.0049,-0.0043,-0.0036,-0.001,0.0002,0.0013,-0.0132,-0.0133,-0.0134,0,0,-0.004,-0.0078,-0.0104,-0.012,-0.0174,-0.0188,-0.0193,-0.0233,-0.0226,-0.019,-0.0185,-0.0142,-0.0095,-0.0055,-0.003,0.0054,0.0027,0.0066,0.0122,0.015,0.016,0.0169,0.0178,0.0187,0.0076,0.0076,0.0076,0,-0.0028,-0.0062,-0.0115,-0.0126,-0.0126,-0.0171,-0.0162,-0.016,-0.0168,-0.0144,-0.0162,-0.007,-0.0051,0.0039,0.0072,0.0076,0.0073,0.0067,0.0159,0.0168,0.0176,0.0183,0.0193,0.0079,0.0079,0.0078,0.0078,0,-0.0051,-0.0053,-0.0068,-0.0079,-0.0079,-0.0086,-0.0088,-0.0066,-0.0058,-0.0052,0.0018,0.0041,0.0095,0.0119,0.0121,0.0206,0.0178,0.0159,0.0119,0.0192,0.0196,0.0204,0.0084,0.0082,0.0082,0.0081,0,0,-0.0066,-0.008,-0.0074,-0.0049,-0.0047,-0.0046,0.0007,0.0041,0.008,0.0095,0.0158,0.0225,0.0213,0.0244,0.0252,0.0284,0.0338,0.0249,0.0249,0.0239,0.0382,0.0343,0.0349,0.0323,0.0325,0.0326,0.0359,0,-0.0053,-0.0039,-0.0047,0.0012,0.0033,0.0046,0.0103,0.0136,0.0162,0.0216,0.0242,0.0295,0.0269,0.0293,0.0323,0.0337,0.0365,0.033,0.0329,0.033,0.0271,0.036,0.0347,0.0373,0.0367,0.0369,0.037,0,-0.0055,-0.0036,0.0015,0.0084,0.0092,0.0129,0.022,0.0257,0.0316,0.0332,0.0375,0.0379,0.0446,0.0399,0.0451,0.0424,0.0414,0.0412,0.0412,0.0365,0.0308,0.0303,0.0389,0.0359,0.0383,0.0382,0.0381,0,-0.0012,0.0024,0.0079,0.01,0.0158,0.02,0.0234,0.0295,0.0332,0.0401,0.0428,0.0482,0.0513,0.0518,0.0507,0.0482,0.0544,0.0506,0.0462,0.0458,0.0444,0.0435,0.0487,0.0544,0.0543,0.0543,0.0543,0,0.0028,0.008,0.0102,0.0139,0.0211,0.0236,0.0311,0.0351,0.0403,0.0453,0.0479,0.0528,0.0542,0.0567,0.0545,0.0535,0.0572,0.0494,0.0477,0.0462,0.0455,0.0423,0.0401,0.0545,0.0544,0.0544,0.0544,0,0.0089,0.0098,0.0163,0.0217,0.0232,0.0287,0.0335,0.0379,0.0426,0.0493,0.0516,0.0576,0.0616,0.0615,0.0636,0.0583,0.0561,0.056,0.0531,0.0511,0.0423,0.0404,0.0449,0.0442,0.0522,0.0522,0.0521,0,0.0127,0.0161,0.0212,0.0232,0.0258,0.0316,0.0347,0.0392,0.0429,0.0519,0.0554,0.0619,0.0671,0.0685,0.0631,0.06,0.0567,0.0533,0.049,0.0441,0.0409,0.0403,0.0394,0.0493,0.0492,0.0491,0.0491,0,0.0199,0.0206,0.0246,0.028,0.0312,0.0354,0.0397,0.0433,0.0488,0.055,0.0635,0.069,0.0704,0.0691,0.0633,0.059,0.0511,0.0517,0.0494,0.0422,0.0398,0.0374,0.0431,0.0486,0.0487,0.0487,0.0487,0.0487,0.0246,0.0271,0.0289,0.0333,0.0355,0.0391,0.043,0.0476,0.0549,0.0644,0.068,0.0769,0.0733,0.067,0.0603,0.0463,0.0481,0.041,0.04,0.0406,0.0382,0.0415,0.0429,0.0429,0.0429,0.043,0.043,0,0.0305,0.0307,0.0333,0.037,0.0394,0.0403,0.0459,0.0496,0.0583,0.0678,0.0752,0.079,0.0729,0.0643,0.0467,0.0369,0.0345,0.0322,0.0326,0.0329,0.0385,0.0363,0.0332,0.0332,0.0332,0.0332,0.0332,0.0332,0.0331,0.0355,0.0359,0.0399,0.0417,0.0447,0.0483,0.0542,0.0613,0.0714,0.0778,0.083,0.0805,0.0538,0.0358,0.0304,0.0269,0.0242,0.024,0.0275,0.0283,0.0291,0.0266,0.0216,0.0216,0.0195,0.0195,0.0195]}],[{"header":{"parameterUnit":"m.s-1","parameterCategory":2,"la1":30.2991,"la2":30.254,"lo1":-89.0895,"lo2":-89.0444,"dy":0.0017,"dx":0.0017,"nx":28,"ny":28,"refTime":"2023-06-19T21:00:00:Z","depth":"2","parameterNumber":2,"parameterNumberName":"U-component_of_CURRENTS"},"data":[0,0,0,0,0,0,0,0,0,0,0,0,0,0,0,0,0,0,0,0,0,0,0,0,0,0,0,0,0,0,0,0,0,0,0,0,0,0,0,0,0,0,0,0,0,0,0,0,0,0,0,0,0,0,0,0,0,0,0.13,0.13,0,0.1285,0.1284,0.1284,0.1297,0.1297,0.1298,0.1299,0.139,0.1391,0.1393,0,0,0,0,0,0,0,0,0,0,0,0,0,0.1331,0.133,0.13,0.13,0.13,0.1285,0.1284,0.1284,0.1296,0.1297,0.1299,0.13,0.1389,0.1391,0.1393,0,0,0,0,0,0,0,0,0,0,0,0,0,0.1313,0.133,0.13,0.1307,0.1308,0.1285,0.1284,0.1284,0.1296,0.1298,0.1299,0.13,0.1389,0.1391,0.1393,0.1382,0,0,0.1401,0.1402,0,0,0,0,0,0,0,0,0.1314,0.1312,0.1306,0.1307,0.1308,0.1297,0.1329,0.1323,0.1296,0.1297,0.1299,0.1301,0.137,0.1374,0.1362,0.1386,0.139,0.1401,0.1403,0.1404,0.1404,0,0,0,0,0,0,0,0.1316,0.1312,0.129,0.1306,0.1307,0.1309,0.1307,0.1327,0.1325,0.1297,0.1299,0.1302,0.1371,0.1359,0.1364,0.1392,0.1401,0.1403,0.1405,0.1406,0.1512,0.1513,0,0,0,0,0,0,0.1324,0.1313,0.1291,0.129,0.1319,0.1308,0.1306,0.1296,0.1323,0.1329,0.1301,0.1303,0.1354,0.1361,0.1368,0.1464,0.1404,0.1406,0.1407,0.151,0.1512,0.1514,0,0,0,0,0,0,0.1324,0.1321,0.1291,0.1305,0.1302,0.1306,0.1295,0.1295,0.1314,0.1326,0.1333,0.1324,0.1356,0.1364,0.1424,0.1464,0.1407,0.1409,0.1509,0.1511,0.1513,0.1587,0,0,0,0,0,0,0.1325,0.1321,0.1349,0.1305,0.1302,0.1299,0.1294,0.1294,0.1314,0.1317,0.1347,0.1355,0.1357,0.142,0.1426,0.1466,0.1411,0.1507,0.151,0.1512,0.1583,0.1592,0.1599,0,0,0,0,0,0.1326,0.132,0.135,0.1349,0.1329,0.13,0.1299,0.1303,0.1314,0.1324,0.1358,0.1355,0.144,0.1424,0.143,0.1472,0.1506,0.1509,0.1512,0.1579,0.159,0.1599,0,0,0,0,0,0,0.1338,0.1321,0.1352,0.1344,0.1348,0.1305,0.1317,0.1319,0.1347,0.1388,0.1376,0.1387,0.1448,0.1449,0.143,0.1508,0.1471,0.1476,0.152,0.153,0.1538,0.1535,0.1413,0,0,0,0,0,0.1361,0.1346,0.1351,0.1342,0.1359,0.1351,0.1353,0.1376,0.138,0.1393,0.1413,0.1443,0.1457,0.1488,0.1505,0.1556,0.1576,0.1584,0.1592,0.1599,0.16,0.1673,0.1688,0.1524,0.1524,0.1524,0,0,0.1351,0.1347,0.1337,0.1346,0.1351,0.1368,0.1354,0.1384,0.1403,0.1404,0.1454,0.1476,0.1474,0.1528,0.1556,0.1543,0.166,0.1603,0.1609,0.1606,0.1678,0.1694,0.1709,0.1526,0.1525,0.1525,0,0,0.1333,0.1342,0.1357,0.1367,0.1417,0.1408,0.1425,0.1443,0.1468,0.1507,0.1522,0.1569,0.1584,0.1605,0.1605,0.1666,0.1693,0.1684,0.1735,0.1806,0.1821,0.1834,0.1898,0.1916,0.1697,0.1697,0.1697,0,0.1361,0.1368,0.1355,0.1389,0.1402,0.1426,0.1463,0.1472,0.1512,0.1553,0.1539,0.1596,0.1605,0.1658,0.1683,0.1684,0.1738,0.17,0.1819,0.1832,0.1844,0.1906,0.1925,0.1701,0.17,0.17,0.17,0,0.1368,0.1398,0.1398,0.1443,0.1445,0.1482,0.1503,0.155,0.1574,0.1599,0.1674,0.1682,0.1723,0.1728,0.1718,0.1819,0.1835,0.1816,0.1797,0.1865,0.1926,0.1945,0.1706,0.1705,0.1704,0.1703,0,0,0.1395,0.1414,0.1425,0.146,0.15,0.1494,0.1538,0.1592,0.1636,0.1688,0.1734,0.1765,0.1816,0.182,0.1841,0.1892,0.202,0.1907,0.1909,0.1976,0.2204,0.2003,0.2003,0.2048,0.2051,0.2054,0.222,0,0.1446,0.1493,0.1487,0.1525,0.1559,0.1579,0.1591,0.1647,0.168,0.1737,0.1787,0.1831,0.1837,0.1873,0.1941,0.1987,0.2071,0.1977,0.2123,0.2127,0.1943,0.2017,0.1844,0.1958,0.2238,0.2241,0.2243,0,0.1506,0.1519,0.1579,0.1584,0.1603,0.1623,0.1666,0.1695,0.1778,0.1809,0.1893,0.1924,0.2023,0.1993,0.2152,0.2109,0.2182,0.2206,0.2213,0.2006,0.1958,0.1932,0.1981,0.2273,0.2271,0.2269,0.2267,0,0.1548,0.1584,0.1627,0.1637,0.1655,0.169,0.1698,0.1753,0.178,0.1882,0.1905,0.2032,0.2077,0.2191,0.2253,0.2239,0.2399,0.238,0.2276,0.2264,0.2126,0.2093,0.2516,0.2516,0.2516,0.2515,0.2515,0,0.1601,0.163,0.1657,0.169,0.1709,0.1726,0.1776,0.1796,0.1856,0.1901,0.1973,0.2009,0.2132,0.2222,0.2302,0.2332,0.2462,0.2294,0.2292,0.2144,0.2112,0.2379,0.2361,0.2521,0.252,0.2519,0.2518,0,0.1636,0.1657,0.1701,0.1741,0.1743,0.1758,0.1769,0.1807,0.1863,0.1916,0.1948,0.2031,0.2119,0.221,0.2364,0.235,0.2414,0.2407,0.2206,0.2171,0.2232,0.2216,0.2312,0.2306,0.2301,0.2297,0.2293,0,0.1652,0.1711,0.1746,0.1732,0.1751,0.177,0.1786,0.1814,0.1841,0.1918,0.1941,0.2022,0.2053,0.2155,0.2163,0.2236,0.2335,0.2084,0.1978,0.2222,0.2213,0.2204,0.2195,0.1871,0.1864,0.1859,0.1855,0,0.1708,0.1754,0.1772,0.1768,0.1767,0.1736,0.1761,0.1755,0.1815,0.1836,0.1858,0.1882,0.1938,0.1869,0.1908,0.1937,0.2036,0.1964,0.2337,0.1889,0.1803,0.1793,0.1801,0.1807,0.1811,0.1815,0.1818,0.1819,0.1749,0.1748,0.1803,0.1779,0.1777,0.1724,0.1656,0.168,0.167,0.1645,0.1728,0.1673,0.1678,0.1579,0.1585,0.1582,0.1719,0.1656,0.1677,0.1702,0.156,0.1463,0.1381,0.1383,0.1385,0.1387,0.1388,0,0.1751,0.1763,0.1794,0.1748,0.1734,0.1737,0.1661,0.1561,0.1508,0.1486,0.1461,0.127,0.1224,0.1262,0.1176,0.1168,0.1226,0.1124,0.1196,0.1242,0.1284,0.1125,0.0829,0.0827,0.0825,0.0824,0,0,0.1728,0.1732,0.1761,0.1737,0.1721,0.1619,0.153,0.137,0.1274,0.1118,0.1043,0.1087,0.1147,0.0926,0.0927,0.0861,0.1048,0.083,0.1274,0.1401,0.1441,0.158,0.1382,0,0,0,0,0]},{"header":{"parameterUnit":"m.s-1","parameterCategory":2,"la1":30.2991,"la2":30.254,"lo1":-89.0895,"lo2":-89.0444,"dy":0.0017,"dx":0.0017,"nx":28,"ny":28,"refTime":"2023-06-19T21:00:00:Z","depth":"2","parameterNumber":3,"parameterNumberName":"V-component_of_CURRENTS"},"data":[0,0,0,0,0,0,0,0,0,0,0,0,0,0,0,0,0,0,0,0,0,0,0,0,0,0,0,0,0,0,0,0,0,0,0,0,0,0,0,0,0,0,0,0,0,0,0,0,0,0,0,0,0,0,0,0,0,0,-0.0593,-0.0595,0,-0.0709,-0.0709,-0.071,-0.0765,-0.0766,-0.0767,-0.0768,-0.0732,-0.073,-0.0728,0,0,0,0,0,0,0,0,0,0,0,0,0,-0.0327,-0.0331,-0.0593,-0.0595,-0.0598,-0.0709,-0.0709,-0.071,-0.0765,-0.0766,-0.0767,-0.0769,-0.0732,-0.073,-0.0728,0,0,0,0,0,0,0,0,0,0,0,0,0,-0.0432,-0.0332,-0.0592,-0.0647,-0.0653,-0.0709,-0.0709,-0.071,-0.0765,-0.0766,-0.0768,-0.0769,-0.0733,-0.073,-0.0728,-0.0683,0,0,-0.0719,-0.0718,0,0,0,0,0,0,0,0,-0.0426,-0.0441,-0.0636,-0.0643,-0.0651,-0.0733,-0.0603,-0.0697,-0.0765,-0.0711,-0.0768,-0.077,-0.0724,-0.0722,-0.0728,-0.0681,-0.0679,-0.0719,-0.0717,-0.0716,-0.0715,0,0,0,0,0,0,0,-0.0419,-0.0436,-0.0628,-0.0639,-0.0648,-0.0634,-0.065,-0.062,-0.0697,-0.0716,-0.0723,-0.0752,-0.0726,-0.073,-0.0727,-0.0679,-0.0719,-0.0717,-0.0715,-0.0714,-0.0616,-0.0615,0,0,0,0,0,0,-0.0431,-0.043,-0.0625,-0.0633,-0.0552,-0.0639,-0.0656,-0.0697,-0.0701,-0.0708,-0.0751,-0.0755,-0.0734,-0.073,-0.0726,-0.0666,-0.0716,-0.0714,-0.0712,-0.0617,-0.0616,-0.0615,0,0,0,0,0,0,-0.0424,-0.0447,-0.062,-0.0541,-0.0564,-0.0644,-0.0687,-0.0699,-0.0717,-0.0732,-0.0733,-0.0761,-0.0735,-0.073,-0.0699,-0.0665,-0.0712,-0.071,-0.0618,-0.0617,-0.0615,-0.055,0,0,0,0,0,0,-0.0416,-0.0444,-0.047,-0.0542,-0.0569,-0.0651,-0.0688,-0.07,-0.0738,-0.0743,-0.074,-0.0738,-0.0736,-0.0703,-0.0696,-0.0662,-0.0708,-0.0619,-0.0617,-0.0616,-0.0553,-0.0546,-0.0541,0,0,0,0,0,-0.0406,-0.0456,-0.0471,-0.0495,-0.0605,-0.0652,-0.0662,-0.0715,-0.0737,-0.0736,-0.0733,-0.0739,-0.0688,-0.0699,-0.0692,-0.0656,-0.062,-0.0618,-0.0616,-0.0556,-0.0548,-0.0541,0,0,0,0,0,0,-0.0357,-0.0469,-0.0487,-0.0568,-0.06,-0.0666,-0.0697,-0.0713,-0.0713,-0.0715,-0.0719,-0.0715,-0.0678,-0.0677,-0.0691,-0.0627,-0.0657,-0.0653,-0.0614,-0.0606,-0.06,-0.06,-0.0705,0,0,0,0,0,-0.0356,-0.0421,-0.0494,-0.055,-0.0579,-0.0627,-0.0654,-0.0674,-0.0695,-0.0699,-0.0693,-0.0682,-0.066,-0.0644,-0.0628,-0.0581,-0.0579,-0.0558,-0.0551,-0.0546,-0.0542,-0.0512,-0.0502,-0.0608,-0.0608,-0.0608,0,0,-0.0355,-0.0423,-0.046,-0.0542,-0.0583,-0.0594,-0.0645,-0.0684,-0.0665,-0.0688,-0.066,-0.0658,-0.0646,-0.0603,-0.0585,-0.0597,-0.0513,-0.0543,-0.0538,-0.0538,-0.0508,-0.0498,-0.0489,-0.0606,-0.0607,-0.0607,0,0,-0.0371,-0.0441,-0.049,-0.0508,-0.0566,-0.0583,-0.0591,-0.0634,-0.0636,-0.0608,-0.0618,-0.0597,-0.0569,-0.0547,-0.0535,-0.0481,-0.0485,-0.0479,-0.0435,-0.0405,-0.0395,-0.0387,-0.0361,-0.0351,-0.047,-0.0469,-0.0469,0,-0.0354,-0.0422,-0.05,-0.0524,-0.0531,-0.0573,-0.0569,-0.0571,-0.0581,-0.0562,-0.0593,-0.0548,-0.0541,-0.0478,-0.0467,-0.0464,-0.0454,-0.0462,-0.0395,-0.0387,-0.038,-0.0355,-0.0345,-0.0466,-0.0466,-0.0467,-0.0467,0,-0.0397,-0.042,-0.0449,-0.0485,-0.0493,-0.05,-0.0512,-0.0494,-0.05,-0.0495,-0.0454,-0.0454,-0.0428,-0.042,-0.0428,-0.0364,-0.0375,-0.0394,-0.0412,-0.0365,-0.0342,-0.0333,-0.0461,-0.0462,-0.0463,-0.0464,0,0,-0.0421,-0.0467,-0.0471,-0.0446,-0.0463,-0.0467,-0.0432,-0.0406,-0.0371,-0.0376,-0.033,-0.0312,-0.0327,-0.0315,-0.0318,-0.0296,-0.0237,-0.0322,-0.0322,-0.0291,-0.0168,-0.0169,-0.016,-0.0243,-0.0241,-0.024,-0.0168,0,-0.0412,-0.0421,-0.0452,-0.0405,-0.0392,-0.0389,-0.0347,-0.0317,-0.0302,-0.026,-0.0263,-0.023,-0.028,-0.0265,-0.0249,-0.0237,-0.0211,-0.0255,-0.0223,-0.0222,-0.0225,-0.0149,-0.016,-0.0097,-0.0159,-0.0158,-0.0157,0,-0.0433,-0.0425,-0.0391,-0.0331,-0.0331,-0.0303,-0.0233,-0.0201,-0.0154,-0.0144,-0.0125,-0.0132,-0.0094,-0.0156,-0.0117,-0.0142,-0.015,-0.0155,-0.0152,-0.0172,-0.0205,-0.0156,-0.0078,-0.0142,-0.0143,-0.0144,-0.0145,0,-0.0382,-0.037,-0.0329,-0.0312,-0.0266,-0.0236,-0.0212,-0.0163,-0.0123,-0.0072,-0.0039,-0.0017,0.0009,-0.0006,-0.0016,-0.0064,0.0028,-0.0038,-0.0046,-0.0046,-0.0059,-0.0063,-0.0008,-0.0008,-0.0008,-0.0009,-0.0009,0,-0.0344,-0.0304,-0.0303,-0.0265,-0.0206,-0.0193,-0.0122,-0.0095,-0.0043,0.0023,0.0016,0.0082,0.0046,0.0088,0.0043,0.0051,0.008,-0.0017,-0.0018,-0.0036,-0.0039,-0.0092,-0.0102,-0.0006,-0.0007,-0.0007,-0.0008,0,-0.0277,-0.0285,-0.0223,-0.0183,-0.0175,-0.0132,-0.0087,-0.003,0.0007,0.0094,0.0114,0.0178,0.0228,0.0204,0.0216,0.0147,0.0141,0.0137,0.0118,0.0114,0.0021,0.0013,0.011,0.0111,0.0111,0.0112,0.0112,0,-0.024,-0.02,-0.0161,-0.0143,-0.0127,-0.008,-0.0039,-0.0007,0.0054,0.0165,0.0224,0.03,0.0369,0.0393,0.0309,0.0256,0.0223,0.0191,0.0083,0.0049,0.0038,0.0029,0.002,0.0097,0.0097,0.0097,0.0097,0,-0.0142,-0.0137,-0.0095,-0.0058,-0.0029,0.0025,0.0081,0.0138,0.0202,0.0272,0.0411,0.0473,0.0483,0.0449,0.0369,0.0309,0.0188,0.0191,0.0205,0.006,0.004,0.0028,0.0019,0.01,0.0099,0.0099,0.0099,0.0099,-0.0069,-0.0038,-0.0,0.0043,0.0066,0.0149,0.0203,0.0277,0.0383,0.0489,0.0542,0.0603,0.0542,0.0434,0.0359,0.0238,0.0218,0.0134,0.0132,0.013,0.0108,0.0089,0.0154,0.0154,0.0154,0.0154,0.0154,0,0.0056,0.0064,0.0097,0.0143,0.0193,0.0189,0.0294,0.0345,0.0467,0.0553,0.0631,0.0574,0.054,0.0451,0.0267,0.0164,0.0132,0.0125,0.0098,0.0097,0.0096,0.0069,0.0107,0.0106,0.0106,0.0106,0,0,0.0116,0.0169,0.0177,0.0261,0.0281,0.0335,0.0396,0.0465,0.052,0.0602,0.0618,0.0665,0.0562,0.0424,0.0304,0.0198,0.016,0.0171,0.0218,0.0198,0.0197,0.011,0.0069,0,0,0,0,0]}],[{"header":{"parameterUnit":"m.s-1","parameterCategory":2,"la1":30.2991,"la2":30.254,"lo1":-89.0895,"lo2":-89.0444,"dy":0.0017,"dx":0.0017,"nx":28,"ny":28,"refTime":"2023-06-19T21:00:00:Z","depth":"4","parameterNumber":2,"parameterNumberName":"U-component_of_CURRENTS"},"data":[0,0,0,0,0,0,0,0,0,0,0,0,0,0,0,0,0,0,0,0,0,0,0,0,0,0,0,0,0,0,0,0,0,0,0,0,0,0,0,0,0,0,0,0,0,0,0,0,0,0,0,0,0,0,0,0,0,0,-0.0377,-0.0379,0,-0.0444,-0.0444,-0.0443,-0.0443,-0.0443,-0.0443,-0.0444,-0.0219,-0.0213,-0.0206,0,0,0,0,0,0,0,0,0,0,0,0,0,0.004,0.0032,-0.0377,-0.0379,-0.0381,-0.0444,-0.0443,-0.0443,-0.0443,-0.0443,-0.0444,-0.0444,-0.0221,-0.0214,-0.0206,0,0,0,0,0,0,0,0,0,0,0,0,0,-0.0083,0.0029,-0.0376,-0.0398,-0.0402,-0.0444,-0.0443,-0.0443,-0.0443,-0.0443,-0.0444,-0.0444,-0.0223,-0.0214,-0.0205,-0.0135,0,0,-0.0176,-0.0172,0,0,0,0,0,0,0,0,-0.0076,-0.0097,-0.0393,-0.0397,-0.0401,-0.0448,-0.0215,-0.033,-0.0442,-0.0413,-0.0444,-0.0445,-0.0277,-0.0263,-0.0259,-0.0124,-0.0114,-0.0175,-0.0169,-0.0165,-0.0162,0,0,0,0,0,0,0,-0.0068,-0.0092,-0.0389,-0.0396,-0.0401,-0.0307,-0.0326,-0.0236,-0.0324,-0.0415,-0.0419,-0.0448,-0.0275,-0.0268,-0.0253,-0.0111,-0.0175,-0.0167,-0.0161,-0.0157,0.029,0.0296,0,0,0,0,0,0,-0.0104,-0.0087,-0.0387,-0.0393,-0.0253,-0.0317,-0.0337,-0.0421,-0.0332,-0.0326,-0.0448,-0.0448,-0.0284,-0.0264,-0.0245,0.0029,-0.0165,-0.0156,-0.0151,0.0284,0.0291,0.0298,0,0,0,0,0,0,-0.0096,-0.0133,-0.0385,-0.0247,-0.0275,-0.0327,-0.0418,-0.0422,-0.0388,-0.0363,-0.0347,-0.0408,-0.0284,-0.0258,-0.0071,0.0031,-0.0152,-0.0143,0.0277,0.0286,0.0295,0.0459,0,0,0,0,0,0,-0.0084,-0.013,-0.0186,-0.0253,-0.0285,-0.0381,-0.0419,-0.0424,-0.0414,-0.0414,-0.0323,-0.0306,-0.0282,-0.0085,-0.0062,0.0041,-0.0136,0.0269,0.0281,0.0292,0.0446,0.0473,0.0496,0,0,0,0,0,-0.007,-0.0172,-0.019,-0.0225,-0.0369,-0.038,-0.0383,-0.041,-0.0411,-0.038,-0.0273,-0.0307,0.0003,-0.0071,-0.0046,0.0062,0.0263,0.0277,0.0291,0.0435,0.0468,0.0495,0,0,0,0,0,0,-0.0008,-0.0184,-0.0205,-0.0352,-0.0343,-0.0385,-0.0403,-0.0383,-0.0285,-0.025,-0.0213,-0.0184,0.0014,0.0027,-0.0057,0.0227,0.0122,0.0142,0.0223,0.0254,0.0279,0.0221,-0.0128,0,0,0,0,0,-0.0027,-0.0164,-0.0227,-0.0329,-0.0339,-0.0346,-0.0353,-0.0326,-0.0271,-0.0233,-0.0126,-0.0017,0.0085,0.016,0.0264,0.0428,0.0311,0.0511,0.0536,0.0557,0.0532,0.0458,0.047,0.0344,0.0343,0.0343,0,0,-0.0032,-0.0148,-0.022,-0.0323,-0.0339,-0.028,-0.0348,-0.0324,-0.0214,-0.0212,0.0012,0.009,0.0153,0.0344,0.043,0.0371,0.0536,0.0575,0.0591,0.0554,0.0473,0.0484,0.0493,0.0353,0.0351,0.035,0,0,-0.0065,-0.0201,-0.0279,-0.0251,-0.0258,-0.0236,-0.0211,-0.0148,-0.0079,0.0137,0.0165,0.0298,0.0509,0.0553,0.0592,0.0815,0.0674,0.0877,0.0957,0.0888,0.0894,0.0899,0.075,0.0739,0.0884,0.0884,0.0885,0,-0.004,-0.0151,-0.0274,-0.0256,-0.0219,-0.0198,-0.0118,-0.0038,0.0127,0.0181,0.0247,0.0501,0.0589,0.0702,0.0818,0.0864,0.0773,0.083,0.0909,0.0912,0.0913,0.0759,0.0745,0.0894,0.0893,0.0892,0.0891,0,-0.0085,-0.0096,-0.0122,-0.0109,-0.0067,0.0003,0.0098,0.0215,0.0332,0.0412,0.0602,0.0734,0.0836,0.0927,0.0966,0.1043,0.0955,0.0943,0.0806,0.0933,0.0766,0.0748,0.0908,0.0904,0.0901,0.0899,0,0,-0.0186,-0.0162,-0.0145,-0.0086,0.0039,0.006,0.024,0.0351,0.0395,0.0646,0.0703,0.0971,0.0988,0.1034,0.1086,0.1088,0.1066,0.1055,0.1047,0.0856,0.085,0.0973,0.0963,0.1066,0.1065,0.1064,0.0718,0,-0.014,-0.0086,-0.0069,0.0093,0.0151,0.0246,0.0369,0.0491,0.0599,0.0685,0.0796,0.0907,0.1037,0.1081,0.1119,0.1079,0.1032,0.1156,0.0797,0.0784,0.0838,0.0954,0.1061,0.0704,0.07,0.0696,0.0694,0,-0.0148,-0.0116,0.0027,0.0149,0.0174,0.0297,0.0402,0.0527,0.0622,0.0692,0.0798,0.0855,0.0952,0.1015,0.0973,0.1048,0.0969,0.0922,0.0906,0.0943,0.0879,0.056,0.066,0.0662,0.0665,0.0667,0.0669,0,-0.0177,-0.0039,0.0065,0.0134,0.0281,0.0353,0.0434,0.0536,0.0593,0.0672,0.0688,0.0782,0.0821,0.0788,0.0839,0.0863,0.0722,0.0693,0.0687,0.0687,0.0587,0.0585,0.058,0.0581,0.0581,0.0582,0.0583,0,-0.0142,-0.0058,0.0061,0.0131,0.0217,0.0331,0.0405,0.0474,0.0548,0.058,0.0684,0.0708,0.078,0.0759,0.0746,0.0716,0.0631,0.0697,0.0637,0.0668,0.0681,0.057,0.0573,0.0569,0.0572,0.0575,0.0577,0,-0.0164,-0.007,0.0028,0.0171,0.0219,0.0276,0.0396,0.0413,0.0496,0.0524,0.0554,0.0628,0.0635,0.0667,0.0576,0.0597,0.0529,0.0509,0.0507,0.045,0.0512,0.0529,0.0378,0.038,0.0382,0.0383,0.0385,0,-0.0173,-0.0111,0.0022,0.0058,0.0141,0.0234,0.0279,0.0394,0.0406,0.0486,0.047,0.0519,0.0575,0.0502,0.056,0.0482,0.0518,0.0404,0.0529,0.0551,0.0504,0.0519,0.0533,0.0387,0.0388,0.0388,0.0389,0,-0.0193,-0.014,-0.0076,0.0,0.0073,0.0122,0.02,0.0211,0.0322,0.037,0.0413,0.0471,0.047,0.0508,0.0508,0.0461,0.0459,0.0422,0.0417,0.0532,0.056,0.0516,0.0528,0.0395,0.0394,0.0394,0.0393,0,-0.0225,-0.0205,-0.012,-0.005,-0.0005,0.0032,0.0079,0.0136,0.0193,0.03,0.0305,0.0387,0.0447,0.0489,0.0479,0.0504,0.0476,0.0427,0.042,0.0413,0.0626,0.068,0.0498,0,0,0,0,0,-0.0239,-0.0207,-0.0177,-0.0105,-0.0087,-0.0037,0.003,0.0074,0.0167,0.0191,0.0272,0.0305,0.0398,0.0426,0.0457,0.0477,0.0456,0.0509,0.0389,0.0431,0.0423,0.0695,0,0,0,0,0,0,-0.0243,-0.0214,-0.0183,-0.0163,-0.0141,-0.0102,-0.0052,0.001,0.003,0.0129,0.0172,0.027,0.0342,0.0372,0.0441,0.0455,0.0373,0.0571,0.057,0.0435,0.0428,0.0422,0.0699,0,0,0,0,0]},{"header":{"parameterUnit":"m.s-1","parameterCategory":2,"la1":30.2991,"la2":30.254,"lo1":-89.0895,"lo2":-89.0444,"dy":0.0017,"dx":0.0017,"nx":28,"ny":28,"refTime":"2023-06-19T21:00:00:Z","depth":"4","parameterNumber":3,"parameterNumberName":"V-component_of_CURRENTS"},"data":[0,0,0,0,0,0,0,0,0,0,0,0,0,0,0,0,0,0,0,0,0,0,0,0,0,0,0,0,0,0,0,0,0,0,0,0,0,0,0,0,0,0,0,0,0,0,0,0,0,0,0,0,0,0,0,0,0,0,0.0306,0.0308,0,0.0459,0.0461,0.0462,0.0541,0.0541,0.0541,0.0542,0.0524,0.0523,0.0523,0,0,0,0,0,0,0,0,0,0,0,0,0,0.0059,0.0063,0.0306,0.0308,0.031,0.0459,0.0461,0.0463,0.0541,0.0541,0.0541,0.0542,0.0524,0.0523,0.0522,0,0,0,0,0,0,0,0,0,0,0,0,0,0.0183,0.0065,0.0305,0.0369,0.0376,0.0458,0.0461,0.0463,0.0541,0.0541,0.0542,0.0542,0.0525,0.0523,0.0522,0.0507,0,0,0.0519,0.0519,0,0,0,0,0,0,0,0,0.0176,0.0191,0.0357,0.0364,0.0373,0.0483,0.0368,0.047,0.0541,0.0476,0.0542,0.0542,0.0495,0.0497,0.0524,0.0506,0.0506,0.0519,0.0518,0.0518,0.0517,0,0,0,0,0,0,0,0.0167,0.0185,0.0364,0.0359,0.0369,0.0382,0.04,0.0388,0.0476,0.0482,0.0488,0.0509,0.0498,0.0525,0.0524,0.0505,0.0519,0.0518,0.0517,0.0517,0.0398,0.0395,0,0,0,0,0,0,0.0154,0.0178,0.0359,0.0369,0.0276,0.0386,0.0406,0.0446,0.0481,0.0489,0.0508,0.0512,0.0527,0.0525,0.0523,0.0524,0.0518,0.0517,0.0516,0.04,0.0397,0.0394,0,0,0,0,0,0,0.0148,0.017,0.0353,0.0277,0.0302,0.039,0.0434,0.0448,0.0529,0.0503,0.0507,0.0579,0.0527,0.0525,0.0518,0.0523,0.0516,0.0515,0.0403,0.0399,0.0396,0.0514,0,0,0,0,0,0,0.0141,0.0167,0.0184,0.0277,0.0306,0.0431,0.0434,0.0451,0.0538,0.0546,0.0564,0.0561,0.0527,0.0519,0.0516,0.0521,0.0514,0.0406,0.0401,0.0397,0.0513,0.0514,0.0516,0,0,0,0,0,0.0132,0.018,0.0184,0.0206,0.0329,0.0433,0.045,0.0511,0.0542,0.0584,0.0569,0.0563,0.0485,0.0518,0.0515,0.052,0.0408,0.0403,0.0397,0.0512,0.0514,0.0516,0,0,0,0,0,0,0.009,0.0195,0.0202,0.0279,0.0353,0.0448,0.0507,0.0546,0.0578,0.0599,0.0562,0.0556,0.054,0.0501,0.0538,0.0455,0.0433,0.0427,0.0521,0.0523,0.0524,0.054,0.0514,0,0,0,0,0,0.0082,0.015,0.0234,0.0299,0.0349,0.0434,0.0485,0.054,0.0584,0.0608,0.0597,0.0559,0.0506,0.0499,0.0453,0.044,0.0374,0.042,0.0422,0.0424,0.0425,0.0308,0.03,0.0376,0.0376,0.0376,0,0,0.0076,0.0151,0.0182,0.0293,0.0369,0.0443,0.047,0.0592,0.0622,0.0592,0.0624,0.0583,0.05,0.0468,0.0455,0.0448,0.0369,0.0417,0.0421,0.0419,0.0301,0.0294,0.0288,0.0372,0.0373,0.0373,0,0,0.0146,0.0185,0.0278,0.0342,0.047,0.0498,0.0544,0.0651,0.0672,0.0696,0.0648,0.061,0.0569,0.0494,0.0449,0.0426,0.038,0.041,0.0446,0.0334,0.0328,0.0322,0.0255,0.0242,0.0412,0.0412,0.0413,0,0.0132,0.0256,0.0316,0.0427,0.0466,0.0529,0.0612,0.064,0.0711,0.069,0.0714,0.0601,0.0566,0.0469,0.0466,0.0436,0.0381,0.0467,0.0342,0.0334,0.0326,0.0258,0.0243,0.0417,0.0417,0.0416,0.0416,0,0.0279,0.0362,0.0437,0.0556,0.0593,0.0696,0.0721,0.0742,0.0758,0.0753,0.0698,0.0641,0.0566,0.0539,0.0515,0.0425,0.0409,0.0366,0.036,0.0327,0.0256,0.0238,0.0425,0.0423,0.0421,0.042,0,0,0.0298,0.0492,0.0524,0.0556,0.0671,0.0706,0.0732,0.0734,0.0714,0.0738,0.0683,0.0622,0.0608,0.0551,0.0503,0.0425,0.0352,0.04,0.0391,0.0373,0.014,0.0223,0.021,0.03,0.0297,0.0294,0.0125,0,0.0396,0.058,0.0644,0.0733,0.0798,0.0801,0.0787,0.0777,0.0751,0.0699,0.0635,0.0582,0.0603,0.0581,0.051,0.0377,0.0304,0.0404,0.0138,0.013,0.024,0.0191,0.0284,0.0111,0.0107,0.0104,0.0101,0,0.054,0.0612,0.0747,0.0765,0.0792,0.0827,0.0759,0.0769,0.0696,0.0678,0.0633,0.0585,0.0501,0.0511,0.0315,0.0386,0.0286,0.0188,0.0178,0.0201,0.0178,0.0134,0.0067,0.007,0.0072,0.0075,0.0077,0,0.0518,0.0673,0.0752,0.0783,0.0822,0.0827,0.0823,0.0768,0.074,0.068,0.0638,0.0546,0.0485,0.0357,0.025,0.0264,0.0018,-0.0014,-0.0043,-0.0038,-0.0108,-0.0101,-0.0182,-0.0182,-0.0181,-0.0181,-0.018,0,0.0582,0.0645,0.0755,0.0785,0.0788,0.0825,0.0805,0.0781,0.0743,0.0681,0.0649,0.0564,0.0442,0.031,0.0213,0.0066,-0.001,-0.0041,-0.0086,-0.0054,-0.0039,-0.0119,-0.011,-0.0187,-0.0186,-0.0185,-0.0183,0,0.0567,0.0683,0.0734,0.0781,0.0802,0.0796,0.082,0.0787,0.0772,0.0687,0.0677,0.0554,0.0408,0.0293,0.0059,0.0013,-0.0142,-0.0184,-0.0101,-0.0138,-0.0119,-0.0102,-0.0263,-0.0262,-0.0261,-0.026,-0.0259,0,0.0585,0.0629,0.0705,0.0722,0.0762,0.0783,0.0792,0.081,0.0764,0.0663,0.0589,0.0468,0.0382,0.0132,0.0025,-0.0137,-0.0156,-0.0223,-0.0193,-0.0105,-0.0133,-0.0118,-0.0103,-0.0257,-0.0257,-0.0256,-0.0256,0,0.0527,0.0585,0.0606,0.0659,0.0699,0.0711,0.0722,0.0696,0.0681,0.0655,0.0515,0.0424,0.0253,0.0119,0.0031,-0.0101,-0.0167,-0.0213,-0.0217,-0.0189,-0.01,-0.0125,-0.0112,-0.0252,-0.0253,-0.0253,-0.0253,0,0.0474,0.0466,0.0533,0.057,0.0617,0.0636,0.0647,0.0611,0.0599,0.051,0.0455,0.0329,0.0257,0.0131,0.0024,-0.0043,-0.0085,-0.012,-0.013,-0.0135,-0.0013,0.0125,-0.0007,0,0,0,0,0,0.0409,0.0421,0.0435,0.0492,0.054,0.058,0.0588,0.0594,0.0578,0.0488,0.0489,0.0354,0.0223,0.0138,0.0078,0.0025,-0.0102,-0.0048,-0.0148,-0.0231,-0.0235,-0.0102,0,0,0,0,0,0,0.0364,0.0394,0.0416,0.0447,0.0469,0.052,0.0535,0.0523,0.0464,0.0439,0.0363,0.0346,0.0208,0.0267,0.0079,0.0054,-0.0016,-0.0107,-0.0108,-0.0228,-0.0233,-0.0236,-0.01,0,0,0,0,0]}]]